COSMOS 1275 DEB

Satellite information

Favourite Embed

Satellite Type and Status

DEBRISIN ORBIT

Key statistics

Satellite COSMOS 1275 DEB at a glance.

Uptime

16167

Days in orbit

Revolutions

≈ 14.1

Per day

Orbit

LEO

Low Earth Orbit

Inclination

82.9

Latest

Satellite identification and parameters

Extended collection of information and parameters for COSMOS 1275 DEB.

Object identification

Identified? True

Debris? True

Object name: COSMOS 1275 DEB

International designator: 1981-053BR

Object number (NORAD): 12724

Object ID (CCSDS): 12724

Country: COMMONWEALTH OF INDEPENDENT STATES (CIS)

Current information (Y/N): Y

RCS size: SMALL

Orbital parameters

Period: 102.301 minutes

Inclination: 82.9344 deg

SMA: 7245.695 km

Apoapsis: 882.687 km

Periapsis: 852.432 km

RAAN: 118.5987 deg

Eccentricy: 0.00208781

Argument of periapsis: 355.5426 deg

Mean anomaly: 58.6486 deg

Mean motion: 14.07611244 rev/day

Mean motion (dot): 0.00001957 rev/day2

B* drag term: 0.0011482379 1/REarth

Two-line elements (TLE)

Creation date: Sept. 7, 2025, 3:09 a.m.

Reference frame: TEME

Reference center: EARTH

Epoch: Sept. 6, 2025, 3:57 p.m. UTC

TLE line 0: 0 COSMOS 1275 DEB

TLE line 1: 1 12724U 81053BR 25249.66509010 .00001957 00000-0 11482-2 0 9992

TLE line 2: 2 12724 82.9344 118.5987 0020878 355.5426 58.6486 14.07611244238103

Live tracking on map

Real-time ground track for satellite COSMOS 1275 DEB.

In-orbit conjunctions

A list of the most updated potential collisions computed for object COSMOS 1275 DEB.

Target Orbit TCA Probability of collision Miss distance Type
FENGYUN 1C DEB SSO 2025-05-18 19:01:38 0.0001021139 73.0 (m) DEBRIS
SL-3 R/B LEO 2025-02-07 19:25:13 0.0001024398 165.0 (m) ROCKET BODY
CZ-6A DEB LEO 2024-12-01 13:07:20 0.0008578741 199.0 (m) DEBRIS
SL-3 R/B LEO 2024-09-28 14:00:39 0.0001391554 529.0 (m) ROCKET BODY
METEOR 1-20 LEO 2024-09-05 03:32:58 0.0001367237 780.0 (m) PAYLOAD

Associated space launch

Navigation satellite providing location information for the Tsiklon-B navigation system

COSMOS 1275 DEB was lifted into orbit during the mission ‘Kosmos-3M | Parus 27’, on board a Kosmos-3M space rocket.

The launch took place on June 4, 1981, 3:41 p.m. from 132/2.

For more information about the launch, click the button.

Launch to space Kosmos-3M | Parus 27
Kosmos-3M | Parus 27

Agency: N/A

Status: Launch Successful

Launch date: June 4, 1981, 3:41 p.m. UTC

Rocket: Kosmos-3M

Launch pad: 132/2

Location: Plesetsk Cosmodrome, Russian Federation

...

Latest news about this satellite

There are no fresh news available about this satellite. Check back as we update our databases every day.


Newsletter sign-up

Weekly statistics, charts and insights to help you stay on top of the space industry.